[[{"header":{"parameterUnit":"m.s-1","parameterCategory":1,"la1":30.2991,"la2":30.254,"lo1":-89.0895,"lo2":-89.0444,"dy":0.0017,"dx":0.0017,"nx":28,"ny":28,"refTime":"2025-02-07T09:00:00:Z","depth":0,"parameterNumber":2,"parameterNumberName":"U-component_of_WINDS"},"data":[0,0,0,0,0,0,0,0,0,0,0,0,0,0,0,0,0,0,0,0,0,0,0,0,0,0,0,0,0,0,0,0,0,0,0,0,0,0,0,0,0,0,0,0,0,0,0,0,0,0,0,0,0,0,0,0,0,0,1.1832,1.1833,0,1.1936,1.1937,1.1938,1.1947,1.1946,1.1945,1.1944,1.2052,1.2056,1.206,0,0,0,0,0,0,0,0,0,0,0,0,0,1.1644,1.1647,1.1832,1.1834,1.1835,1.1936,1.1937,1.1938,1.1947,1.1946,1.1944,1.1943,1.2051,1.2055,1.206,0,0,0,0,0,0,0,0,0,0,0,0,0,1.1734,1.1648,1.1832,1.1851,1.1854,1.1935,1.1937,1.1939,1.1947,1.1946,1.1944,1.1942,1.2049,1.2055,1.2061,1.2131,0,0,1.2079,1.2081,0,0,0,0,0,0,0,0,1.1729,1.1741,1.1847,1.185,1.1853,1.1927,1.191,1.2003,1.1948,1.1912,1.1944,1.1942,1.2012,1.2021,1.2044,1.2136,1.214,1.2079,1.2083,1.2085,1.2087,0,0,0,0,0,0,0,1.1723,1.1737,1.1873,1.1849,1.1852,1.1855,1.1866,1.1928,1.197,1.1915,1.1916,1.1928,1.2013,1.2038,1.2046,1.2142,1.2079,1.2084,1.2088,1.209,1.2297,1.2299,0,0,0,0,0,0,1.1713,1.1732,1.187,1.1876,1.1786,1.186,1.1872,1.1905,1.1969,1.1978,1.1929,1.1928,1.2029,1.204,1.205,1.2137,1.2085,1.2091,1.2094,1.2295,1.2297,1.2299,0,0,0,0,0,0,1.1709,1.1725,1.1866,1.1804,1.1822,1.1865,1.1902,1.1908,1.1933,1.198,1.1988,1.1947,1.2028,1.2042,1.211,1.2141,1.2093,1.2099,1.2292,1.2295,1.2298,1.231,0,0,0,0,0,0,1.1703,1.1723,1.175,1.1805,1.1826,1.1924,1.1903,1.1911,1.1943,1.1942,1.1999,1.2007,1.2028,1.2102,1.2116,1.2148,1.2103,1.229,1.2294,1.2297,1.2307,1.2313,1.2318,0,0,0,0,0,1.1696,1.175,1.1751,1.1768,1.186,1.1925,1.1937,1.196,1.1945,1.1972,1.2003,1.2005,1.2135,1.2109,1.2125,1.2159,1.2288,1.2293,1.2297,1.2305,1.2312,1.2318,0,0,0,0,0,0,1.1698,1.1757,1.176,1.1832,1.1874,1.1927,1.1962,1.1967,1.2014,1.2011,1.2038,1.2051,1.2119,1.2146,1.2115,1.223,1.221,1.2218,1.221,1.2218,1.2223,1.2215,1.2108,0,0,0,0,0,1.1707,1.1755,1.1804,1.1863,1.1884,1.1919,1.1949,1.1962,1.2007,1.2025,1.206,1.2104,1.2154,1.2187,1.2236,1.2311,1.2324,1.2342,1.2348,1.2352,1.2359,1.2401,1.241,1.2314,1.2314,1.2314,0,0,1.1726,1.1764,1.1792,1.1864,1.1898,1.1948,1.1934,1.1987,1.2024,1.2033,1.21,1.2127,1.2178,1.2249,1.2283,1.2274,1.2388,1.2358,1.2361,1.2365,1.2406,1.2415,1.2424,1.2317,1.2316,1.2316,0,0,1.1785,1.1818,1.1872,1.1906,1.1957,1.198,1.1992,1.2045,1.2063,1.2131,1.2138,1.2183,1.227,1.2306,1.2335,1.2408,1.2412,1.2423,1.2452,1.2492,1.25,1.2507,1.2534,1.2543,1.2429,1.2429,1.243,0,1.1802,1.1877,1.1898,1.1952,1.1983,1.1992,1.2047,1.2079,1.2144,1.2166,1.2154,1.2263,1.2298,1.2378,1.2396,1.2419,1.2435,1.2417,1.2497,1.2504,1.2511,1.2537,1.2547,1.2431,1.243,1.243,1.243,0,1.1895,1.1947,1.1984,1.2046,1.2081,1.2135,1.2165,1.2199,1.2209,1.2234,1.2303,1.2344,1.2402,1.2422,1.2433,1.2505,1.2498,1.2491,1.2472,1.2521,1.2546,1.2556,1.2432,1.2432,1.2431,1.2431,0,0,1.196,1.2032,1.2046,1.2074,1.2131,1.2171,1.2225,1.2281,1.231,1.2354,1.2401,1.2474,1.2468,1.2502,1.2517,1.2552,1.2608,1.2542,1.2544,1.2553,1.269,1.2695,1.2706,1.261,1.2612,1.2614,1.2686,0,1.2026,1.2122,1.2143,1.2226,1.2274,1.2284,1.2331,1.2371,1.2395,1.244,1.2467,1.2519,1.2507,1.2528,1.2563,1.2594,1.2636,1.2589,1.2655,1.2657,1.2643,1.2719,1.2724,1.2791,1.2696,1.2698,1.2699,0,1.2117,1.2163,1.225,1.2301,1.2322,1.2364,1.2417,1.246,1.2506,1.2521,1.2558,1.2569,1.2626,1.2603,1.2683,1.265,1.2678,1.2697,1.27,1.2708,1.2681,1.273,1.2812,1.2822,1.2714,1.2713,1.2712,0,1.2156,1.2239,1.2303,1.2326,1.2387,1.2416,1.2443,1.2487,1.252,1.2566,1.2588,1.264,1.267,1.271,1.2736,1.2716,1.2814,1.2792,1.2829,1.2828,1.285,1.2848,1.2939,1.2866,1.2866,1.2866,1.2866,0,1.2228,1.2282,1.2321,1.236,1.242,1.2444,1.2503,1.253,1.2569,1.2614,1.2625,1.2667,1.2698,1.2744,1.2765,1.2828,1.2841,1.2855,1.286,1.2855,1.2853,1.2875,1.2871,1.2869,1.2868,1.2868,1.2867,0,1.2282,1.2311,1.238,1.2432,1.2446,1.2488,1.2533,1.2571,1.2595,1.2652,1.2667,1.2705,1.276,1.2789,1.2859,1.2872,1.2944,1.2945,1.2928,1.293,1.2965,1.2962,1.3074,1.309,1.3006,1.3006,1.3007,0,1.2327,1.2368,1.2424,1.2455,1.2482,1.2531,1.2564,1.2589,1.2623,1.2679,1.2711,1.2766,1.2812,1.29,1.2935,1.2988,1.2992,1.3027,1.3,1.2993,1.2993,1.2991,1.2995,1.3032,1.3033,1.3034,1.3034,0,1.2404,1.2416,1.2463,1.2515,1.2554,1.2596,1.2638,1.2662,1.2694,1.2732,1.2788,1.2824,1.2894,1.295,1.3005,1.3034,1.304,1.3042,1.3054,1.3049,1.3038,1.3045,1.2942,1.304,1.3039,1.3039,1.3039,1.3038,1.2455,1.2493,1.2538,1.259,1.2624,1.2663,1.2701,1.273,1.2778,1.2837,1.2848,1.2908,1.2954,1.3029,1.3059,1.3106,1.3099,1.3115,1.312,1.3124,1.3126,1.3029,1.3116,1.3116,1.3116,1.3116,1.3116,0,1.2533,1.2563,1.261,1.2668,1.2709,1.2711,1.2757,1.2791,1.2844,1.2885,1.293,1.2995,1.3049,1.3087,1.3142,1.3173,1.3177,1.3186,1.3185,1.3192,1.3128,1.3113,1.3182,1.3182,1.3182,1.3182,1.3182,1.3182,1.2579,1.2642,1.266,1.274,1.2769,1.2828,1.2854,1.289,1.2923,1.2995,1.304,1.3064,1.3105,1.3163,1.3212,1.3222,1.3243,1.3252,1.3262,1.3203,1.3196,1.3189,1.3175,1.3256,1.3256,1.3322,1.3322,1.3323]},{"header":{"parameterUnit":"m.s-1","parameterCategory":1,"la1":30.2991,"la2":30.254,"lo1":-89.0895,"lo2":-89.0444,"dy":0.0017,"dx":0.0017,"nx":28,"ny":28,"refTime":"2025-02-07T09:00:00:Z","depth":0,"parameterNumber":3,"parameterNumberName":"V-component_of_WINDS"},"data":[0,0,0,0,0,0,0,0,0,0,0,0,0,0,0,0,0,0,0,0,0,0,0,0,0,0,0,0,0,0,0,0,0,0,0,0,0,0,0,0,0,0,0,0,0,0,0,0,0,0,0,0,0,0,0,0,0,0,3.963,3.9631,0,3.9732,3.9733,3.9734,3.9719,3.9718,3.9716,3.9714,3.9814,3.9818,3.9823,0,0,0,0,0,0,0,0,0,0,0,0,0,3.9417,3.9421,3.963,3.9631,3.9632,3.9732,3.9733,3.9734,3.972,3.9718,3.9716,3.9714,3.9813,3.9818,3.9823,0,0,0,0,0,0,0,0,0,0,0,0,0,3.9513,3.9422,3.9629,3.9637,3.9639,3.9731,3.9733,3.9735,3.972,3.9718,3.9715,3.9713,3.9811,3.9817,3.9824,3.9914,0,0,3.9843,3.9846,0,0,0,0,0,0,0,0,3.9508,3.9521,3.9635,3.9637,3.9639,3.971,3.9695,3.9795,3.9721,3.9689,3.9714,3.9711,3.9781,3.979,3.9815,3.9918,3.9923,3.9844,3.9848,3.985,3.9852,0,0,0,0,0,0,0,3.9501,3.9516,3.967,3.9636,3.9639,3.9634,3.9644,3.9713,3.9748,3.9692,3.9691,3.9703,3.9782,3.9809,3.9817,3.9924,3.9843,3.9849,3.9853,3.9856,4.0107,4.0109,0,0,0,0,0,0,3.9493,3.9511,3.9667,3.9673,3.9566,3.9639,3.9652,3.969,3.9747,3.9754,3.9705,3.9702,3.9799,3.9809,3.982,3.993,3.985,3.9856,3.986,4.0104,4.0107,4.011,0,0,0,0,0,0,3.9488,3.9507,3.9662,3.9592,3.9611,3.9646,3.9689,3.9693,3.972,3.9758,3.9763,3.9727,3.9797,3.9811,3.9891,3.9934,3.9859,3.9865,4.01,4.0105,4.0109,4.0151,0,0,0,0,0,0,3.9482,3.9506,3.9541,3.9593,3.9615,3.9733,3.9691,3.9697,3.9731,3.9728,3.9779,3.9785,3.9796,3.9882,3.9897,3.9941,3.987,4.0097,4.0102,4.0107,4.0146,4.0156,4.0164,0,0,0,0,0,3.9475,3.9548,3.9543,3.9562,3.9661,3.9736,3.9748,3.9761,3.9735,3.9771,3.9795,3.9784,3.9926,3.989,3.9907,3.9954,4.0094,4.0101,4.0107,4.0141,4.0154,4.0164,0,0,0,0,0,0,3.9499,3.9555,3.955,3.9643,3.9685,3.9733,3.9779,3.9774,3.9823,3.9818,3.983,3.9842,3.9923,3.9945,3.9904,4.0044,4.0006,4.0016,4.0026,4.0038,4.0048,4.0041,3.9875,0,0,0,0,0,3.9516,3.9574,3.9618,3.9695,3.9717,3.9744,3.9777,3.9783,3.9827,3.9844,3.9874,3.9915,3.9969,4.0005,4.0056,4.0148,4.0159,4.0188,4.0198,4.0205,4.0214,4.0265,4.0278,4.0132,4.0131,4.0131,0,0,3.955,3.9587,3.9623,3.9701,3.9734,3.9793,3.9759,3.9822,3.9865,3.9853,3.9931,3.9954,4.0001,4.0087,4.0126,4.0109,4.0257,4.0213,4.0219,4.0224,4.0273,4.0286,4.0299,4.0136,4.0135,4.0134,0,0,3.9642,3.9676,3.9745,3.9779,3.983,3.9848,3.9864,3.9913,3.9929,4.0007,4.0,4.005,4.0142,4.0176,4.0205,4.0309,4.0301,4.0325,4.0375,4.0424,4.0436,4.0446,4.0484,4.0497,4.0334,4.0334,4.0334,0,3.9678,3.9767,3.978,3.9844,3.9879,3.9871,3.994,3.9972,4.0037,4.006,4.0039,4.0156,4.0186,4.0281,4.0306,4.033,4.0348,4.0321,4.0433,4.0444,4.0454,4.049,4.0504,4.0337,4.0337,4.0336,4.0336,0,3.9808,3.987,3.9919,3.9984,4.0023,4.0089,4.011,4.0148,4.0151,4.017,4.0249,4.0286,4.0345,4.0367,4.0369,4.0462,4.0449,4.0431,4.0394,4.047,4.0505,4.0518,4.0341,4.034,4.0339,4.0338,0,0,3.9921,3.9992,4.001,4.0039,4.0095,4.0142,4.0206,4.0266,4.0298,4.0342,4.0397,4.0475,4.0459,4.0492,4.0497,4.054,4.0621,4.0516,4.0517,4.0535,4.0725,4.074,4.0755,4.0614,4.0617,4.0619,4.0721,0,4.0019,4.0137,4.015,4.0253,4.031,4.0304,4.036,4.0399,4.0418,4.0468,4.0488,4.0544,4.0517,4.0537,4.0579,4.0602,4.0659,4.0594,4.0665,4.0667,4.0655,4.0773,4.0789,4.0884,4.0734,4.0737,4.0738,0,4.0151,4.0201,4.0311,4.0359,4.0383,4.0434,4.0489,4.0537,4.0581,4.0591,4.0628,4.0628,4.0693,4.0652,4.0742,4.0698,4.0727,4.0742,4.0746,4.0754,4.0709,4.0786,4.0914,4.0929,4.0759,4.0758,4.0756,0,4.0223,4.0318,4.0396,4.0421,4.0479,4.0515,4.054,4.0581,4.0616,4.0663,4.0686,4.0739,4.0769,4.0809,4.0823,4.0792,4.0912,4.0872,4.0922,4.0922,4.095,4.0948,4.1086,4.0966,4.0965,4.0965,4.0965,0,4.0333,4.0401,4.043,4.0478,4.0553,4.0566,4.064,4.0663,4.0699,4.0751,4.0747,4.0795,4.0809,4.0859,4.0869,4.0942,4.0955,4.0965,4.0967,4.0967,4.0966,4.0987,4.0981,4.0969,4.0968,4.0967,4.0967,0,4.0428,4.045,4.0535,4.0582,4.0596,4.0649,4.0689,4.0735,4.0753,4.0818,4.0834,4.0861,4.092,4.0937,4.1007,4.1014,4.1099,4.1095,4.1086,4.1086,4.1136,4.1132,4.1294,4.1316,4.118,4.1181,4.1182,0,4.0498,4.055,4.0604,4.0639,4.0666,4.0722,4.0758,4.0772,4.0809,4.0862,4.0901,4.0959,4.1007,4.1101,4.1126,4.1179,4.1176,4.1229,4.1184,4.1182,4.1179,4.1176,4.1182,4.1239,4.124,4.1241,4.1242,0,4.0619,4.0628,4.0681,4.0737,4.0781,4.0825,4.0868,4.0897,4.0916,4.0958,4.1019,4.1056,4.1127,4.1185,4.1239,4.1262,4.1256,4.1256,4.1271,4.1271,4.1264,4.127,4.1111,4.1252,4.1251,4.1251,4.125,4.125,4.0705,4.0751,4.0797,4.0855,4.0889,4.0929,4.0975,4.0999,4.1051,4.1112,4.1115,4.1181,4.1222,4.1294,4.1321,4.1371,4.1355,4.1376,4.1382,4.1387,4.1392,4.1255,4.138,4.138,4.138,4.138,4.138,0,4.0828,4.0856,4.091,4.0971,4.1017,4.1008,4.1054,4.1093,4.1152,4.1191,4.1238,4.1308,4.1363,4.1393,4.1448,4.1483,4.1481,4.1497,4.1495,4.1501,4.1403,4.1385,4.1497,4.1497,4.1497,4.1497,4.1497,4.1497,4.0897,4.0976,4.0989,4.1083,4.1111,4.1177,4.1204,4.1241,4.1273,4.1351,4.1398,4.1417,4.1452,4.151,4.156,4.1567,4.1588,4.1606,4.1611,4.1519,4.1507,4.1496,4.148,4.161,4.161,4.1705,4.1706,4.1707]}]]